Location: Dunedin
(45.8900°S, 170.5000°E)
Time: 12:30:47
(UTC+12:00)

ISS - Pass Details

Date: 17 April 2024
Orbit: 409 x 414 km, 51.6° (Epoch: 20 May)

Event Time Altitude Azimuth Distance (km) Brightness Sun altitude
Rises 18:33:41 0° 326° (NNW) 2,387 0.8 -7.0°
Reaches altitude 10° 18:35:56 10° 337° (NNW) 1,528 -0.5 -7.4°
Maximum altitude 18:38:59 30° 40° (NE) 804 -2.6 -7.9°
Enters shadow 18:41:50 11° 101° (E) 1,459 -1.7 -8.4°
